TimePST,TemperatureF,Dew PointF,Humidity,Sea Level PressureIn,VisibilityMPH,Wind Direction,Wind SpeedMPH,Gust SpeedMPH,PrecipitationIn,Events,Conditions,WindDirDegrees,DateUTC
12:15 AM,39.2,37.4,93,30.32,10.0,ESE,3.5,-,N/A,,Clear,120,2012-11-22 08:15:00
12:35 AM,39.2,35.6,87,30.32,10.0,ESE,4.6,-,N/A,,Clear,120,2012-11-22 08:35:00
12:55 AM,39.2,35.6,87,30.32,10.0,ESE,5.8,-,N/A,,Clear,120,2012-11-22 08:55:00
1:15 AM,39.2,35.6,87,30.33,10.0,Calm,Calm,-,N/A,,Clear,0,2012-11-22 09:15:00
1:35 AM,37.4,33.8,87,30.33,10.0,Calm,Calm,-,N/A,,Clear,0,2012-11-22 09:35:00
1:55 AM,35.6,33.8,93,30.33,9.0,Calm,Calm,-,N/A,,Clear,0,2012-11-22 09:55:00
2:15 AM,35.6,33.8,93,30.33,2.5,Calm,Calm,-,N/A,,Clear,0,2012-11-22 10:15:00
2:35 AM,37.4,35.6,93,30.34,10.0,Calm,Calm,-,N/A,,Clear,0,2012-11-22 10:35:00
2:55 AM,35.6,30.2,81,30.35,10.0,Calm,Calm,-,N/A,,Clear,0,2012-11-22 10:55:00
3:15 AM,35.6,33.8,93,30.35,10.0,Calm,Calm,-,N/A,,Clear,0,2012-11-22 11:15:00
3:35 AM,37.4,33.8,87,30.36,10.0,Calm,Calm,-,N/A,,Partly Cloudy,0,2012-11-22 11:35:00
3:55 AM,37.4,35.6,93,30.36,10.0,Calm,Calm,-,N/A,,Clear,0,2012-11-22 11:55:00
4:15 AM,35.6,33.8,93,30.36,10.0,Calm,Calm,-,N/A,,Mostly Cloudy,0,2012-11-22 12:15:00
4:35 AM,35.6,32.0,87,30.37,10.0,Calm,Calm,-,N/A,,Overcast,0,2012-11-22 12:35:00
4:55 AM,35.6,33.8,93,30.37,10.0,Calm,Calm,-,N/A,,Overcast,0,2012-11-22 12:55:00
5:15 AM,37.4,33.8,87,30.38,10.0,Calm,Calm,-,N/A,,Overcast,0,2012-11-22 13:15:00
5:35 AM,37.4,33.8,87,30.38,10.0,Calm,Calm,-,N/A,,Mostly Cloudy,0,2012-11-22 13:35:00
5:55 AM,35.6,33.8,93,30.38,10.0,Calm,Calm,-,N/A,,Mostly Cloudy,0,2012-11-22 13:55:00
6:15 AM,35.6,33.8,93,30.38,10.0,Calm,Calm,-,N/A,,Overcast,0,2012-11-22 14:15:00
6:35 AM,35.6,33.8,93,30.38,10.0,Calm,Calm,-,N/A,,Overcast,0,2012-11-22 14:35:00
6:55 AM,35.6,33.8,93,30.38,10.0,Calm,Calm,-,N/A,,Mostly Cloudy,0,2012-11-22 14:55:00
7:15 AM,35.6,32.0,87,30.38,10.0,Calm,Calm,-,N/A,,Scattered Clouds,0,2012-11-22 15:15:00
7:35 AM,35.6,32.0,87,30.39,10.0,Calm,Calm,-,N/A,,Scattered Clouds,0,2012-11-22 15:35:00
7:55 AM,37.4,33.8,87,30.38,10.0,Calm,Calm,-,N/A,,Partly Cloudy,0,2012-11-22 15:55:00
8:15 AM,37.4,33.8,87,30.38,10.0,Calm,Calm,-,N/A,,Clear,0,2012-11-22 16:15:00
8:35 AM,37.4,35.6,93,30.38,10.0,Calm,Calm,-,N/A,,Clear,0,2012-11-22 16:35:00
8:55 AM,39.2,35.6,87,30.39,10.0,Calm,Calm,-,N/A,,Partly Cloudy,0,2012-11-22 16:55:00
9:15 AM,39.2,35.6,87,30.38,10.0,Calm,Calm,-,N/A,,Scattered Clouds,0,2012-11-22 17:15:00
9:35 AM,39.2,35.6,87,30.38,10.0,Calm,Calm,-,N/A,,Mostly Cloudy,0,2012-11-22 17:35:00
9:55 AM,41.0,35.6,81,30.37,10.0,Calm,Calm,-,N/A,,Overcast,0,2012-11-22 17:55:00
10:15 AM,41.0,35.6,81,30.38,10.0,Calm,Calm,-,N/A,,Overcast,0,2012-11-22 18:15:00
10:35 AM,41.0,37.4,87,30.38,10.0,Calm,Calm,-,N/A,,Overcast,0,2012-11-22 18:35:00
10:55 AM,42.8,37.4,81,30.37,10.0,Calm,Calm,-,N/A,,Overcast,0,2012-11-22 18:55:00
11:15 AM,42.8,37.4,81,30.36,10.0,Calm,Calm,-,N/A,,Overcast,0,2012-11-22 19:15:00
11:35 AM,42.8,37.4,81,30.36,10.0,Calm,Calm,-,N/A,,Overcast,0,2012-11-22 19:35:00
11:55 AM,44.6,37.4,76,30.36,10.0,Calm,Calm,-,N/A,,Overcast,0,2012-11-22 19:55:00
12:15 PM,44.6,37.4,76,30.35,10.0,Calm,Calm,-,N/A,,Overcast,0,2012-11-22 20:15:00
12:35 PM,44.6,37.4,76,30.34,10.0,Calm,Calm,-,N/A,,Overcast,0,2012-11-22 20:35:00
12:55 PM,44.6,39.2,81,30.33,10.0,Calm,Calm,-,N/A,,Overcast,0,2012-11-22 20:55:00
1:15 PM,44.6,37.4,76,30.33,10.0,Calm,Calm,-,N/A,,Overcast,0,2012-11-22 21:15:00
1:35 PM,44.6,37.4,76,30.33,10.0,North,3.5,-,N/A,,Overcast,10,2012-11-22 21:35:00
1:55 PM,44.6,37.4,76,30.33,10.0,NE,4.6,-,N/A,,Overcast,50,2012-11-22 21:55:00
2:15 PM,44.6,37.4,76,30.32,10.0,NE,6.9,-,N/A,,Overcast,50,2012-11-22 22:15:00
2:35 PM,44.6,37.4,76,30.31,10.0,ENE,4.6,-,N/A,,Overcast,60,2012-11-22 22:35:00
2:55 PM,44.6,37.4,76,30.31,10.0,Calm,Calm,-,N/A,,Overcast,0,2012-11-22 22:55:00
3:15 PM,44.6,37.4,76,30.32,10.0,Calm,Calm,-,N/A,,Overcast,0,2012-11-22 23:15:00
3:35 PM,44.6,37.4,76,30.32,10.0,NNE,3.5,-,N/A,,Overcast,30,2012-11-22 23:35:00
3:55 PM,44.6,37.4,76,30.31,10.0,NE,4.6,-,N/A,,Overcast,50,2012-11-22 23:55:00
4:15 PM,44.6,37.4,76,30.30,10.0,Calm,Calm,-,N/A,,Overcast,0,2012-11-23 00:15:00
4:35 PM,42.8,37.4,81,30.31,10.0,Calm,Calm,-,N/A,,Overcast,0,2012-11-23 00:35:00
4:55 PM,44.6,37.4,76,30.30,10.0,NE,3.5,-,N/A,,Overcast,50,2012-11-23 00:55:00
5:15 PM,44.6,37.4,76,30.29,10.0,ENE,5.8,-,N/A,,Overcast,60,2012-11-23 01:15:00
5:35 PM,42.8,37.4,81,30.28,10.0,ENE,4.6,-,N/A,,Overcast,60,2012-11-23 01:35:00
5:55 PM,42.8,35.6,76,30.27,10.0,NNE,4.6,-,N/A,,Mostly Cloudy,20,2012-11-23 01:55:00
6:15 PM,42.8,35.6,76,30.27,10.0,Calm,Calm,-,N/A,,Scattered Clouds,0,2012-11-23 02:15:00
6:35 PM,42.8,37.4,81,30.25,10.0,Calm,Calm,-,N/A,,Mostly Cloudy,0,2012-11-23 02:35:00
6:55 PM,42.8,35.6,76,30.24,10.0,Calm,Calm,-,N/A,,Mostly Cloudy,0,2012-11-23 02:55:00
7:15 PM,42.8,35.6,76,30.23,10.0,Calm,Calm,-,N/A,,Mostly Cloudy,0,2012-11-23 03:15:00
7:35 PM,44.6,35.6,71,30.23,10.0,South,3.5,-,N/A,,Overcast,180,2012-11-23 03:35:00
7:55 PM,42.8,37.4,81,30.24,10.0,NW,3.5,-,N/A,,Overcast,310,2012-11-23 03:55:00
8:15 PM,42.8,37.4,81,30.22,10.0,NE,5.8,-,N/A,,Overcast,50,2012-11-23 04:15:00
8:35 PM,42.8,37.4,81,30.21,10.0,ENE,3.5,-,N/A,,Overcast,60,2012-11-23 04:35:00
8:55 PM,42.8,37.4,81,30.21,10.0,Calm,Calm,-,N/A,,Overcast,0,2012-11-23 04:55:00
9:15 PM,44.6,35.6,71,30.21,10.0,Calm,Calm,-,N/A,,Overcast,0,2012-11-23 05:15:00
9:35 PM,42.8,37.4,81,30.22,10.0,Calm,Calm,-,N/A,,Overcast,0,2012-11-23 05:35:00
9:55 PM,42.8,37.4,81,30.22,10.0,Calm,Calm,-,N/A,,Overcast,0,2012-11-23 05:55:00
10:15 PM,42.8,37.4,81,30.22,10.0,Calm,Calm,-,N/A,,Overcast,0,2012-11-23 06:15:00
10:55 PM,42.8,37.4,81,30.23,10.0,Calm,Calm,-,N/A,,Overcast,0,2012-11-23 06:55:00
11:15 PM,44.6,37.4,76,30.22,10.0,Calm,Calm,-,N/A,,Overcast,0,2012-11-23 07:15:00
11:35 PM,44.6,37.4,76,30.22,10.0,SW,4.6,-,N/A,,Overcast,230,2012-11-23 07:35:00
11:55 PM,46.4,37.4,71,30.20,10.0,ESE,6.9,-,N/A,,Overcast,110,2012-11-23 07:55:00